Regional Weather Roundup
Issued by NWS

Home | Current Version | Previous Version | Graphics & Text | Print | Product List | Glossary On
Versions: 1 2 3 4 5 6 7 8 9 10 11 12 13 14 15 16 17 18 19 20 21 22 23 24 25 26 27 28 29 30 31 32 33 34 35 36 37 38 39 40 41 42 43 44 45 46 47 48 49 50
000
ASUS43 KFSD 240210
RWRSD

WEATHER ROUNDUP FOR SOUTH DAKOTA
NATIONAL WEATHER SERVICE SIOUX FALLS SD
900 PM CDT MON OCT 23 2017

NOTE: "FAIR" INDICATES FEW OR NO CLOUDS BELOW 12,000 FEET WITH NO
SIGNIFICANT WEATHER AND/OR OBSTRUCTIONS TO VISIBILITY.


SDZ001>005-009-010-012>017-240300-
NORTHWEST AND NORTH CENTRAL SOUTH DAKOTA

CITY           SKY/WX    TMP DP  RH WIND       PRES   REMARKS
BUFFALO          N/A     46  24  42 NW25      30.33R
FAITH            N/A     48  25  40 NW20      30.32R
MOBRIDGE       MOCLDY    52  31  44 N24G32    30.20R
$$

SDZ012>016-024>037-041>051-057-063-072>074-240300-
SOUTHWEST AND SOUTH CENTRAL SOUTH DAKOTA

CITY           SKY/WX    TMP DP  RH WIND       PRES   REMARKS
RAPID CTY ARPT CLEAR     48  20  32 NW18G30   30.39R
PIERRE         MOCLDY    50  27  40 NW15      30.23R
CUSTER         CLEAR     40  17  39 NW10G21   30.43R
ELLSWORTH AFB  CLEAR     47  20  34 NW16      30.39R
PHILIP         PTCLDY    50  23  34 NW14      30.32R
PINE RIDGE     CLEAR     43  19  38 NW7       30.40R
SPEARFISH      FAIR      46  19  34 NW17G25   30.44R
WINNER         MOCLDY    50  28  42 NW13      30.24R
$$

SDZ004>011-016>023-039-040-240300-
NORTHEAST SOUTH DAKOTA

CITY           SKY/WX    TMP DP  RH WIND       PRES   REMARKS
ABERDEEN       CLEAR     46  34  62 NW20G31   30.15R
WATERTOWN      CLOUDY    47  36  65 NW31G38   30.03S
BROOKINGS      CLOUDY    49  34  56 NW23G31   30.03R
SISSETON         N/A     49  34  56 NW25G36   30.04R
$$

SDZ017-020-022-023-036>040-048>070-240300-
SOUTHEAST SOUTH DAKOTA

CITY           SKY/WX    TMP DP  RH WIND       PRES   REMARKS
SIOUX FALLS    CLOUDY    52  35  52 NW15      30.04R
HURON          CLOUDY    52  32  46 N30G45    30.12R
CHAMBERLAIN    MOCLDY    54  30  40 NW21G28   30.21R
MITCHELL       CLOUDY    53  31  42 NW21G28   30.12S
YANKTON        CLOUDY    51  34  52 W15       30.09F
$$

ABBREVIATIONS USED IN REMARKS
   TC - TEMPERATURE IN CELSIUS
  WCI - WIND CHILL INDEX
   HX - HEAT INDEX
  VSB - VISIBILITY




USA.gov is the U.S. government's official web portal to all federal, state and local government web resources and services.